Hourly Data Report for October 13, 2019

SHEARWATER RCS
NOVA SCOTIA
Current Station Operator: ECCC - MSC

44°37'47.000" N
63°30'48.000" W
24.00 m
8205092
71264
AAW

Download Data

Hourly Data (October 2019)
Hourly Data Report for October 13, 2019
TIME
LST
Temp Definition
°C
Dew Point Definition
°C
Rel Hum Definition
%
Precip. Amount Definition
mm

Wind Dir Definition
10's deg

Wind Spd Definition
km/h
Visibility Definition
km
Stn Press Definition
kPa
Hmdx Definition


Wind Chill Definition


Weather Definition


00:00 13.1 12.3 95 0.0 35 6   100.65     LegendNANA
01:00 12.7 12.0 95 0.0 32 7   100.67     LegendNANA
02:00 12.5 11.8 95 0.0 34 8   100.64     LegendNANA
03:00 12.5 11.7 95 0.0 33 8   100.67     LegendNANA
04:00 12.3 11.5 95 0.0 34 13   100.69     LegendNANA
05:00 12.0 11.1 94 0.0 34 9   100.72     LegendNANA
06:00 11.6 10.6 94 0.0 33 9   100.79     LegendNANA
07:00 11.2 10.0 93 0.0 33 10   100.88     LegendNANA
08:00 10.7 9.5 93 0.0 33 13   100.96     LegendNANA
09:00 10.5 9.2 92 0.0 35 14   101.00     LegendNANA
10:00 10.9 9.1 89 0.0 34 14   101.04     LegendNANA
11:00 11.4 9.4 88 0.0 35 13   101.05     LegendNANA
12:00 11.7 9.4 86 0.0 34 14   101.07     LegendNANA
13:00 12.4 9.8 84 0.0 35 12   101.06     LegendNANA
14:00 12.2 9.5 83 0.0 33 14   101.10     LegendNANA
15:00 12.2 9.4 83 0.0 33 12   101.13     LegendNANA
16:00 11.9 9.0 83 0.0 34 15   101.14     LegendNANA
17:00 11.5 9.0 85 0.0 36 10   101.22     LegendNANA
18:00 11.1 9.0 87 0.0 36 10   101.25     LegendNANA
19:00 10.8 8.7 87 0.0 33 11   101.32     LegendNANA
20:00 10.5 8.5 87 0.0 35 12   101.38     LegendNANA
21:00 10.5 8.5 88 0.0 33 10   101.43     LegendNANA
22:00 10.4 8.6 89 0.0 36 7   101.42     LegendNANA
23:00 10.3 8.5 89 0.0 36 10   101.44     LegendNANA

Notes on Data Quality.

Legend

  • E = Estimated
  • M = Missing
  • NA = Not Available*
  • [empty] = Indicates an unobserved value
Date modified: